Weather History for Washington, MO

Change the Weather History Date:

Friday, November 30, 2012

  Actual Average (KSTL) Record (KSTL)
Temperature  
Mean Temperature 49 °F 40 °F  
Max Temperature 66 °F 48 °F 70 °F (1970)
Min Temperature 32 °F 32 °F 1 °F (1964)
Degree Days  
Heating Degree Days 16 25  
Month to date heating degree days 549  
Since 1 July heating degree days 826  
Cooling Degree Days 0 0  
Month to date cooling degree days 4  
Year to date cooling degree days 1646  
Moisture  
Dew Point 38 °F    
Average Humidity 65    
Maximum Humidity 93    
Minimum Humidity 46    
Precipitation  
Precipitation 0.00 in 0.13 in 2.92 in (2006)
Month to date precipitation 3.91  
Year to date precipitation 38.12  
Snow  
Snow - 0.10 in 2.40 in (2008)
Month to date snowfall 0.7  
Since 1 July snowfall 0.7  
Since 1 September snowfall 0.7  
Snow Depth -    
Sea Level Pressure  
Sea Level Pressure 30.09 in    
Wind  
Wind Speed 1 mph ()    
Max Wind Speed 8 mph    
Max Gust Speed -    
Visibility 10.0 miles    
Events      
T = Trace of Precipitation, MM = Missing Value Source: Averaged Metar Reports

Daily Weather History Graph

Daily Weather History Graph

Search for Another Location

Airport:

Trip Planner

Search our weather history database for the weather conditions in past years. The results will help you decide how hot, cold, wet, or windy it might be!

Date:

Astronomy

Nov. 30, 2012 Rise Set
Actual Time 7:02 AM CST 4:43 PM CST
Civil Twilight 6:32 AM CST 5:12 PM CST
Nautical Twilight 6:00 AM CST 5:45 PM CST
Astronomical Twilight 5:28 AM CST 6:17 PM CST
Moon 6:38 PM CST (11/30) 8:34 AM CST (11/30)
Length of Visible Light 10h 39m
Length of Day
9h 41m
Waning Gibbous, 96% of the Moon is Illuminated
Nov 30
Waning Gibbous
Dec 6
Last Quarter
Dec 13
New
Dec 19
First Quarter
Dec 28
Full

Hourly Weather History & Observations

Time (CST) Temp. Windchill Dew Point Humidity Pressure Visibility Wind Dir Wind Speed Gust Speed Precip Events Conditions
12:15 AM 46.4 °F - 32.0 °F 57% 30.11 in 10.0 mi Calm Calm - N/A   Clear
12:35 AM 46.4 °F - 32.0 °F 57% 30.12 in 10.0 mi Calm Calm - N/A   Clear
12:55 AM 48.2 °F - 32.0 °F 54% 30.11 in 10.0 mi SE 5.8 mph - N/A   Clear
1:15 AM 46.4 °F - 32.0 °F 57% 30.11 in 10.0 mi Calm Calm - N/A   Clear
1:35 AM 46.4 °F - 32.0 °F 57% 30.12 in 10.0 mi Calm Calm - N/A   Clear
1:55 AM 46.4 °F - 32.0 °F 57% 30.12 in 10.0 mi Calm Calm - N/A   Clear
2:15 AM 46.4 °F - 32.0 °F 57% 30.11 in 10.0 mi Calm Calm - N/A   Clear
2:35 AM 46.4 °F 44.3 °F 32.0 °F 57% 30.11 in 10.0 mi SSE 4.6 mph - N/A   Clear
2:55 AM 46.4 °F - 32.0 °F 57% 30.11 in 10.0 mi Calm Calm - N/A   Clear
3:15 AM 46.4 °F - 32.0 °F 57% 30.10 in 10.0 mi Calm Calm - N/A   Clear
3:35 AM 46.4 °F - 32.0 °F 57% 30.10 in 10.0 mi Calm Calm - N/A   Clear
3:55 AM 46.4 °F - 32.0 °F 57% 30.10 in 10.0 mi Calm Calm - N/A   Partly Cloudy
4:15 AM 46.4 °F - 32.0 °F 57% 30.09 in 10.0 mi Calm Calm - N/A   Partly Cloudy
4:35 AM 46.4 °F - 32.0 °F 57% 30.10 in 10.0 mi Calm Calm - N/A   Scattered Clouds
4:55 AM 39.2 °F - 32.0 °F 75% 30.09 in 10.0 mi Calm Calm - N/A   Mostly Cloudy
5:15 AM 37.4 °F - 32.0 °F 81% 30.10 in 10.0 mi Calm Calm - N/A   Mostly Cloudy
5:35 AM 37.4 °F - 32.0 °F 81% 30.10 in 10.0 mi Calm Calm - N/A   Mostly Cloudy
5:55 AM 35.6 °F - 32.0 °F 87% 30.10 in 10.0 mi Calm Calm - N/A   Mostly Cloudy
6:15 AM 33.8 °F - 32.0 °F 93% 30.10 in 10.0 mi Calm Calm - N/A   Mostly Cloudy
6:35 AM 33.8 °F - 32.0 °F 93% 30.10 in 10.0 mi Calm Calm - N/A   Mostly Cloudy
6:55 AM 33.8 °F - 30.2 °F 87% 30.10 in 10.0 mi Calm Calm - N/A   Partly Cloudy
7:15 AM 33.8 °F - 30.2 °F 87% 30.10 in 10.0 mi Calm Calm - N/A   Clear
7:55 AM 32.0 °F - 30.2 °F 93% 30.11 in 10.0 mi Calm Calm - N/A   Clear
8:15 AM 35.6 °F - 32.0 °F 87% 30.12 in 10.0 mi Calm Calm - N/A   Clear
8:35 AM 39.2 °F - 32.0 °F 75% 30.12 in 10.0 mi Calm Calm - N/A   Clear
8:55 AM 41.0 °F - 33.8 °F 76% 30.12 in 10.0 mi Calm Calm - N/A   Clear
9:15 AM 46.4 °F - 37.4 °F 71% 30.12 in 10.0 mi Calm Calm - N/A   Clear
9:35 AM 50.0 °F - 35.6 °F 58% 30.12 in 10.0 mi Calm Calm - N/A   Clear
9:55 AM 53.6 °F - 35.6 °F 51% 30.12 in 10.0 mi Calm Calm - N/A   Clear
10:15 AM 55.4 °F - 37.4 °F 51% 30.12 in 10.0 mi Calm Calm - N/A   Clear
10:35 AM 57.2 °F - 37.4 °F 48% 30.11 in 10.0 mi Calm Calm - N/A   Clear
10:55 AM 59.0 °F - 39.2 °F 48% 30.11 in 10.0 mi WSW 4.6 mph - N/A   Clear
11:15 AM 59.0 °F - 41.0 °F 51% 30.09 in 10.0 mi WSW 5.8 mph - N/A   Clear
11:35 AM 60.8 °F - 41.0 °F 48% 30.08 in 10.0 mi South 6.9 mph - N/A   Clear
11:55 AM 62.6 °F - 42.8 °F 48% 30.07 in 10.0 mi WSW 4.6 mph - N/A   Clear
12:15 PM 62.6 °F - 42.8 °F 48% 30.07 in 10.0 mi WSW 6.9 mph - N/A   Clear
12:35 PM 64.4 °F - 44.6 °F 49% 30.06 in 10.0 mi West 4.6 mph - N/A   Clear
12:55 PM 64.4 °F - 44.6 °F 49% 30.06 in 10.0 mi WSW 4.6 mph - N/A   Clear
1:15 PM 64.4 °F - 44.6 °F 49% 30.05 in 9.0 mi SW 6.9 mph - N/A   Clear
1:35 PM 64.4 °F - 44.6 °F 49% 30.05 in 10.0 mi SW 4.6 mph - N/A   Clear
1:55 PM 66.2 °F - 44.6 °F 46% 30.05 in 10.0 mi SSW 8.1 mph - N/A   Clear
2:15 PM 66.2 °F - 44.6 °F 46% 30.05 in 10.0 mi SSW 3.5 mph - N/A   Clear
2:35 PM 66.2 °F - 44.6 °F 46% 30.04 in 10.0 mi South 6.9 mph - N/A   Clear
2:55 PM 66.2 °F - 44.6 °F 46% 30.05 in 10.0 mi SSW 8.1 mph - N/A   Clear
3:15 PM 66.2 °F - 44.6 °F 46% 30.05 in 10.0 mi SSW 4.6 mph - N/A   Clear
3:35 PM 66.2 °F - 46.4 °F 49% 30.05 in 10.0 mi Calm Calm - N/A   Clear
3:55 PM 64.4 °F - 44.6 °F 49% 30.05 in 10.0 mi Calm Calm - N/A   Clear
4:15 PM 64.4 °F - 44.6 °F 49% 30.05 in 10.0 mi Calm Calm - N/A   Clear
4:35 PM 62.6 °F - 44.6 °F 52% 30.06 in 10.0 mi Calm Calm - N/A   Clear
4:55 PM 62.6 °F - 44.6 °F 52% 30.06 in 10.0 mi Calm Calm - N/A   Clear
5:35 PM 55.4 °F - 44.6 °F 67% 30.06 in 10.0 mi Calm Calm - N/A   Clear
5:55 PM 51.8 °F - 44.6 °F 76% 30.06 in 10.0 mi Calm Calm - N/A   Clear
6:15 PM 48.2 °F - 41.0 °F 76% 30.07 in 10.0 mi Calm Calm - N/A   Clear
6:35 PM 50.0 °F - 41.0 °F 71% 30.07 in 10.0 mi Calm Calm - N/A   Clear
6:55 PM 48.2 °F - 41.0 °F 76% 30.07 in 10.0 mi Calm Calm - N/A   Partly Cloudy
7:15 PM 48.2 °F - 41.0 °F 76% 30.07 in 10.0 mi Calm Calm - N/A   Partly Cloudy
7:35 PM 46.4 °F - 39.2 °F 76% 30.07 in 10.0 mi Calm Calm - N/A   Partly Cloudy
8:35 PM 42.8 °F - 39.2 °F 87% 30.07 in 10.0 mi Calm Calm - N/A   Scattered Clouds
9:15 PM 44.6 °F - 39.2 °F 81% 30.07 in 10.0 mi Calm Calm - N/A   Scattered Clouds
9:35 PM 44.6 °F - 41.0 °F 87% 30.07 in 10.0 mi Calm Calm - N/A   Scattered Clouds
9:55 PM 42.8 °F - 39.2 °F 87% 30.08 in 10.0 mi Calm Calm - N/A   Scattered Clouds
10:15 PM 44.6 °F - 39.2 °F 81% 30.08 in 10.0 mi Calm Calm - N/A   Partly Cloudy
10:35 PM 46.4 °F - 41.0 °F 81% 30.08 in 10.0 mi Calm Calm - N/A   Partly Cloudy
11:15 PM 44.6 °F - 41.0 °F 87% 30.09 in 10.0 mi Calm Calm - N/A   Clear
11:35 PM 48.2 °F - 41.0 °F 76% 30.09 in 10.0 mi Calm Calm - N/A   Clear
11:55 PM 50.0 °F - 42.8 °F 76% 30.08 in 10.0 mi Calm Calm - N/A   Clear